Location: Gombori
(14.9797°N, 2.9419°W)
Time: 10:41:57
(UTC+00:00)

Feng Yun 1-1 Rocket - Pass Details

Date: 29 July 2021
Orbit: 829 x 934 km, 99.2° (Epoch: 22 September)

Event Time Altitude Azimuth Distance (km) Brightness Sun altitude
Rises 18:55:47 0° 163° (SSE) 3,563 7.1 -3.8°
Reaches altitude 10° 18:58:12 10° 161° (SSE) 2,627 6.4 -4.4°
Maximum altitude 19:04:05 76° 76° (ENE) 959 4.4 -5.7°
Drops below altitude 10° 19:09:58 10° 351° (N) 2,631 7.2 -7.0°
Sets 19:12:23 0° 350° (N) 3,568 7.9 -7.6°
